This is the latest recevied weather packets stored in our database for station/object DK6GC-10. If no packets are shown the sender has not sent any weather packets the latest 1 day(s).
| Time | Temp. | Humidity | Pressure | Rain* | Wind** | Luminosity | Snow |
|---|---|---|---|---|---|---|---|
| 1777737622 | 26.11° C | 34% | 1017.1 hPa | - | - | - | - |
| 1777736722 | 26.11° C | 35% | 1017.2 hPa | - | - | - | - |
| 1777735822 | 26.67° C | 35% | 1017.4 hPa | - | - | - | - |
| 1777734922 | 26.67° C | 34% | 1017.5 hPa | - | - | - | - |
| 1777734022 | 26.67° C | 34% | 1017.6 hPa | - | - | - | - |
| 1777733122 | 26.67° C | 35% | 1017.8 hPa | - | - | - | - |
| 1777732221 | 26.67° C | 32% | 1018.1 hPa | - | - | - | - |
| 1777731321 | 26.67° C | 33% | 1018.4 hPa | - | - | - | - |
| 1777730421 | 26.67° C | 35% | 1018.7 hPa | - | - | - | - |
| 1777729521 | 26.67° C | 36% | 1018.9 hPa | - | - | - | - |
| 1777728621 | 26.67° C | 34% | 1019.2 hPa | - | - | - | - |
| 1777726819 | 26.11° C | 36% | 1019.6 hPa | - | - | - | - |
| 1777725919 | 25.56° C | 34% | 1019.8 hPa | - | - | - | - |
| 1777725019 | 26.11° C | 36% | 1019.9 hPa | - | - | - | - |
| 1777724118 | 25.56° C | 36% | 1020.1 hPa | - | - | - | - |
| 1777723243 | 25° C | 35% | 1020.3 hPa | - | - | - | - |
| 1777722343 | 25° C | 37% | 1020.5 hPa | - | - | - | - |
| 1777721443 | 24.44° C | 35% | 1020.8 hPa | - | - | - | - |
| 1777720543 | 24.44° C | 38% | 1021 hPa | - | - | - | - |
| 1777719643 | 23.89° C | 38% | 1021.2 hPa | - | - | - | - |
| 1777718960 | 23.33° C | 36% | 1021.3 hPa | - | - | - | - |
| 1777716029 | 22.22° C | 42% | 1022 hPa | - | - | - | - |
| 1777715124 | 21.67° C | 42% | 1022.3 hPa | - | - | - | - |
| 1777714224 | 21.11° C | 43% | 1022.4 hPa | - | - | - | - |
| 1777713323 | 21.11° C | 43% | 1022.6 hPa | - | - | - | - |
* Rain since midnight (hover to see other rain measurements)
** Current wind speed in m/s (hover to see current wind gust speed)